Preview of NWS' New Version of Forecast
This preview is not operational and should not be used for support decisions.
Latest weather observations around

Columbia - Jim Hamilton L.B. Owens Airport (KCUB)

Using English Units (Switch to International System of Units)
Date/ Time (EDT) Wind (mph) Vis. (mi) Weather Sky Cond. Temp (°F) Rel. Humidity Wind Chill (°F) Heat Index (°F) Pressure Precip. (in)
Air Dwpt 6 hour Altimeter (inHg) Sea level (inHg) 1 hr 3 hr 6 hr
Max Min
Sep 19 17:53   10 Clear CLR 81 42     25%   80   30.18      
Sep 19 16:53 6 10 Clear CLR 81 40     23%   80   30.19      
Sep 19 15:53 ENE 8 10 Clear CLR 82 40     22%   80   30.19      
Sep 19 14:53 NNE 9 10 Clear CLR 80 42     26%   79   30.22      
Sep 19 13:53 5 10 Clear CLR 80 42     26%   79   30.23      
Sep 19 12:53 6 10 Clear CLR 78 43     29%   77   30.24      
Sep 19 11:53 ENE 10 10 Clear CLR 76 44     32%   75   30.25      
Sep 19 09:53 5 10 Clear CLR 73 48     41%   72 30.25 30.25      
Sep 19 08:53 3 10 Clear CLR 67 52     59%     30.25 30.24      
Sep 19 07:53 3 10 Clear CLR 62 53     72%       30.23      
Sep 19 06:53 ENE 5 10 Clear CLR 62 52     70%     30.22 30.22      
Sep 19 05:53 Calm 10 Clear CLR 64 52     65%       30.2      
Sep 19 04:53 Calm 10 Clear CLR 66 52     61%     30.2 30.19      
Sep 19 03:53 5 10 Clear CLR 68 52     57%       30.18      
Sep 19 02:53 5 10 Mostly Clear FEW080 70 53     55%       30.17      
Sep 19 01:53 5 10 Cloudy FEW060 OVC080 72 53     51%   71 30.17 30.16      
Sep 19 00:53 Calm 10 Cloudy OVC075 73 55     53%   73   30.16      
Sep 18 23:53 5 10 Cloudy OVC060 75 55     50%   75   30.15      
Sep 18 22:53 Calm 10 Cloudy OVC060 76 55     48%   75 30.15 30.14      
Sep 18 21:53 Calm 10 Cloudy OVC065 76 55     48%   75   30.13      
Sep 18 20:53 Calm 10 Mostly Cloudy BKN060 77 54     45%   77   30.11      
Sep 18 19:53 Calm 10 Mostly Cloudy BKN100 78 54     43%   78   30.09      
Sep 18 18:53 ENE 3 10 Mostly Clear FEW100 81 55     41%   81   30.08      
Sep 18 17:53 5 10 Cloudy OVC060 82 54     38%   81   30.08      
Sep 18 16:53 ENE 7 10 Mostly Clear FEW110 84 53     35%   83   30.08      
Sep 18 15:53 3 10 Mostly Clear FEW060 84 54     36%   83   30.09      
Sep 18 14:53 NNE 9 10 Mostly Cloudy BKN060 BKN085 83 54     37%   82   30.09      
Sep 18 13:53 6 10 Mostly Cloudy SCT065 BKN080 83 53     36%   82   30.1      
Sep 18 12:53 7 10 Mostly Cloudy BKN055 80 53     39%   80   30.11      
Notice The following observation data may not be complete
Sep 18 11:53   10 Partly Cloudy FEW060 SCT090          %              
Sep 18 09:53 E 8 10 Mostly Cloudy SCT043 BKN055 75 55     50%   75   30.1      
Sep 18 08:53 E 9 10 Cloudy OVC042 73 57     57%   73 30.11 30.1      
Sep 18 07:53 6 10 Cloudy BKN041 OVC048 73 63     71%   73 30.09 30.08      
Sep 18 06:53 Calm 10 Cloudy OVC041 73 65     76%   74   30.06      
Sep 18 05:53 7 10 Cloudy OVC033 74 64     71%   74   30.05      
Sep 18 04:53 5 10 Cloudy OVC031 75 63     66%   75   30.03      
Sep 18 04:34 7 10 Cloudy BKN031 BKN041 OVC048 75 63     66%   75          
Sep 18 03:53 ENE 8 10 Cloudy BKN028 BKN038 OVC046 76 64     67%   76   30.02      
Sep 18 03:49 6 10 Cloudy BKN028 OVC041 75 64     69%   76          
Sep 18 02:53 6 10 Cloudy OVC100 77 66     69%   78   30.01      
Sep 18 01:53 6 10 Mostly Cloudy BKN095 BKN110 78 67     69%   79   30 0   0
Sep 18 00:53 Calm 10 Cloudy OVC095 76 70     82%   77   29.99 0    
Sep 18 00:11 SSE 3 10 Cloudy OVC070 81 65     58%   83          
Sep 17 23:53 NNW 5 10 Partly Cloudy SCT070 SCT110 79 66     65%   80   29.99      
Sep 17 23:45 Calm 10 Mostly Clear FEW110 79 66     65%   80          
Sep 17 22:53 Calm 10 Clear   80 66     62%   82   29.96      
Sep 17 21:53 Calm 10 Clear CLR 82 65     56%   84   29.96      
Sep 17 20:53 Calm 10 Clear CLR 84 65     53%   86   29.94      
Sep 17 19:53 Calm 10 Clear CLR 85 65     51%   87   29.93     0
Sep 17 18:53 3 10 Mostly Clear FEW110 86 66     51%   88   29.92 0    
Sep 17 17:53 ESE 3 10 Mostly Cloudy BKN070 92 65     41%   94   29.91      
Sep 17 16:53 6 10 Mostly Cloudy BKN075 BKN095 94 64     37%   96   29.9      
Sep 17 15:53 E 5 10 Mostly Cloudy BKN075 96 62     33%   97   29.9      
Sep 17 14:53 3 10 Mostly Clear FEW110 97 64     34%   99   29.91      
Sep 17 12:53 Calm 10 Clear CLR 92 65     41%   94   29.96      
Sep 17 11:53 5 10 Clear CLR 89 65     45%   91   29.97      
Sep 17 10:53 Calm 10 Clear CLR 85 67     55%   88   29.99      
Sep 17 09:53 Calm 10 Clear CLR 82 67     60%   85   29.99      
Sep 17 08:53 Calm 10 Clear CLR 75 67     76%   76 29.99 29.98      
Sep 17 07:53 Calm 10 Clear CLR 70 65     84%       29.97      
Sep 17 06:53 Calm 10 Clear CLR 69 64     84%       29.96      
Sep 17 05:53 Calm 10 Clear CLR 70 65     84%       29.95      
Sep 17 04:53 Calm 10 Clear CLR 71 65     81%   72   29.94      
Sep 17 03:53 Calm 10 Clear CLR 71 65     81%   72   29.94      
Sep 17 02:53 Calm 10 Clear CLR 72 65     79%   73 29.96 29.95      
Sep 17 01:53 Calm 10 Clear CLR 73 65     76%   74   29.96      
Sep 17 00:53 Calm 10 Clear CLR 75 66     74%   76   29.96      
Sep 16 23:53 Calm 10 Clear CLR 76 66     71%   77   29.96      
Sep 16 22:53 Calm 10 Clear CLR 78 64     62%   79   29.96      
Sep 16 21:53 Calm 10 Clear CLR 80 63     56%   81   29.96      
Sep 16 19:53 Calm 10 Clear CLR 87 61     42%   87   29.94      
May 15 14:05 E 5 1.75 Thunderstorms and Rain and Fog/Mist FEW009 BKN030 BKN048 71 69     93%   72 30.05   0    
May 15 13:43 SE 6 10 Thunderstorms FEW024 BKN049 OVC075 78 71     79%   79 30.04   0    
May 15 13:18 Calm 10 Light Rain SCT050 SCT065 OVC090 79 70     74%   82 30.04   0    
May 15 04:53 Calm 10 Clear   72 68     87%   73 30.02 30.01      
Notice The following observation data may not be complete
May 14 07:53   10 Clear CLR          %              
May 13 13:53 5 10 Clear CLR 94 56     28%   92 30.06 30.05      
May 12 01:53 Calm 10 Clear CLR 71 63     76%   71 30.1 30.09      
May 11 08:53 Calm 10 Clear CLR 74 61     64%   74 30.08 30.08      
Jun 12 07:53 Calm 10 Clear CLR 71 66     84%   72 30.22 30.22      
Jun 12 00:53 Calm 10 Clear CLR 72 65     79%   73 30.2 30.19      
Jun 09 16:53 5 10 Clear   87 58     37%   86 29.93 29.92      
Jun 09 15:53 NNW 9 10 Partly Cloudy SCT060 SCT090 87 59     39%   86 29.94 29.93      
Jun 08 20:53 Calm 10 Clear CLR 73 56     55%   73 29.87 29.86      
Jun 08 15:53 7 10 Clear CLR 80 52     38%   80 29.85 29.85      
Jun 08 07:53 NE 7 10 Clear CLR 62 53     72%     29.9 29.89      
Jun 08 03:53 3 10 Clear CLR 65 59     81%     29.86 29.85      
Jun 06 02:53 SW 5 10 Mostly Cloudy BKN010 BKN120 73 72     96%   75 29.78 29.77